GW5221 Weather Reports


Display with metric or nautical units.
time (UTC)temp
F
wind
direction
speed
MPH
gust
MPH
rain 1hr
in
rain 24hr
in
rain mn
in
humidity
%
barometer
mb
20260901095850 83 10 1.0 6.0 0.00 0.00 0.00 84
20260901095342 83 350 0.0 2.0 0.00 0.00 0.00 84
20260901094836 83 43 2.0 3.0 0.00 0.00 0.00 84
20260901094331 83 355 0.0 4.0 0.00 0.00 0.00 84
20260901093826 83 321 1.0 4.0 0.00 0.00 0.00 83
20260901093325 83 345 2.0 3.0 0.00 0.00 0.00 83
20260901092821 83 319 3.0 4.0 0.00 0.00 0.00 83
20260901092317 83 308 2.0 6.0 0.00 0.00 0.00 83
20260901091812 83 32 1.0 3.0 0.00 0.00 0.00 83
20260901091307 83 120 2.0 6.0 0.00 0.00 0.00 83
20260901090802 83 270 2.0 8.0 0.00 0.00 0.00 83
20260901090303 83 59 2.0 4.0 0.00 0.00 0.00 83
20260901085758 83 210 2.0 3.0 0.00 0.00 0.00 83
20260901085253 83 251 3.0 6.0 0.00 0.00 0.00 83
20260901084750 83 355 2.0 3.0 0.00 0.00 0.00 83
20260901084246 83 332 1.0 3.0 0.00 0.00 0.00 83
20260901083746 83 9 1.0 3.0 0.00 0.00 0.00 83
20260901083245 83 2 0.0 3.0 0.00 0.00 0.00 83
20260901082743 83 335 1.0 3.0 0.00 0.00 0.00 83
20260901082239 83 93 1.0 4.0 0.00 0.00 0.00 83
20260901081734 83 327 1.0 3.0 0.00 0.00 0.00 82
20260901081234 83 50 2.0 3.0 0.00 0.00 0.00 82
20260901080729 83 299 1.0 4.0 0.00 0.00 0.00 82
20260901080228 83 86 3.0 6.0 0.00 0.00 0.00 82
20260901075729 83 289 1.0 4.0 0.00 0.00 0.00 82
20260901075224 83 352 2.0 4.0 0.00 0.00 0.00 82
20260901074723 83 337 1.0 3.0 0.00 0.00 0.00 82
20260901074219 83 313 1.0 2.0 0.00 0.00 0.00 82
20260901073715 83 348 2.0 7.0 0.00 0.00 0.00 83
20260901073211 83 305 1.0 3.0 0.00 0.00 0.00 83
20260901072706 83 357 0.0 4.0 0.00 0.00 0.00 83
20260901072200 83 346 0.0 3.0 0.00 0.00 0.00 83
20260901071654 83 24 2.0 2.0 0.00 0.00 0.00 83
20260901071149 83 340 1.0 3.0 0.00 0.00 0.00 83
20260901070643 83 31 3.0 3.0 0.00 0.00 0.00 82
20260901070139 83 5 3.0 4.0 0.00 0.00 0.00 82
20260901065637 83 56 2.0 3.0 0.00 0.00 0.00 82
20260901065133 83 299 2.0 4.0 0.00 0.00 0.00 82
20260901064630 83 23 0.0 6.0 0.00 0.00 0.00 83
20260901064126 83 302 2.0 3.0 0.00 0.00 0.00 83
20260901063623 83 52 3.0 7.0 0.00 0.00 0.00 83
20260901063118 83 11 2.0 3.0 0.00 0.00 0.00 83
20260901062614 83 346 1.0 3.0 0.00 0.00 0.00 82
20260901062109 83 306 2.0 4.0 0.00 0.00 0.00 82
20260901061605 83 162 1.0 4.0 0.00 0.00 0.00 82
20260901061100 84 112 1.0 3.0 0.00 0.00 0.00 82
20260901060559 84 345 3.0 3.0 0.00 0.00 0.00 82
20260901060055 84 331 2.0 6.0 0.00 0.00 0.00 82
20260901055550 84 23 4.0 7.0 0.00 0.00 0.00 82
20260901055047 84 15 2.0 7.0 0.00 0.00 0.00 82
20260901054543 84 182 1.0 6.0 0.00 0.00 0.00 82
20260901054039 84 123 4.0 8.0 0.00 0.00 0.00 82
20260901053535 84 124 4.0 7.0 0.00 0.00 0.00 82
20260901053031 84 214 3.0 6.0 0.00 0.00 0.00 82
20260901052526 84 166 3.0 6.0 0.00 0.00 0.00 82
20260901052026 84 16 2.0 9.0 0.00 0.00 0.00 82
20260901051521 84 333 2.0 3.0 0.00 0.00 0.00 82
20260901051019 84 26 1.0 4.0 0.00 0.00 0.00 82
20260901050515 84 17 2.0 6.0 0.00 0.00 0.00 82
20260901050010 84 337 4.0 9.0 0.00 0.00 0.00 82
20260901045505 84 321 1.0 3.0 0.00 0.00 0.00 82
20260901044959 84 78 1.0 6.0 0.00 0.00 0.00 82
20260901044455 84 176 3.0 6.0 0.00 0.00 0.00 82
20260901043951 84 107 1.0 4.0 0.00 0.00 0.00 81
20260901043448 84 345 2.0 9.0 0.00 0.00 0.00 81
20260901042947 84 41 1.0 3.0 0.00 0.00 0.00 80
20260901042447 84 281 3.0 6.0 0.00 0.00 0.00 80
20260901041942 84 354 1.0 6.0 0.00 0.00 0.00 80
20260901041437 84 355 1.0 3.0 0.00 0.00 0.00 80
20260901040937 84 240 3.0 7.0 0.00 0.00 0.00 80
20260901040432 84 351 2.0 7.0 0.00 0.00 0.00 81
20260901035931 84 35 2.0 6.0 0.00 0.00 0.00 81
20260901035430 84 15 3.0 7.0 0.00 0.00 0.00 81
20260901034928 84 278 1.0 3.0 0.00 0.00 0.00 81
20260901034423 84 33 2.0 6.0 0.00 0.00 0.00 81
20260901033918 84 8 0.0 7.0 0.00 0.00 0.00 81
20260901033417 84 9 2.0 10.0 0.00 0.00 0.00 81
20260901032916 84 0 1.0 6.0 0.00 0.00 0.00 81
20260901032416 84 306 1.0 8.0 0.00 0.00 0.00 81
20260901031911 84 7 2.0 3.0 0.00 0.00 0.00 81
20260901031407 84 322 1.0 3.0 0.00 0.00 0.00 81
20260901030906 84 113 4.0 8.0 0.00 0.00 0.00 81
20260901030402 84 334 3.0 4.0 0.00 0.00 0.00 81
20260901025900 84 347 3.0 7.0 0.00 0.00 0.00 81
20260901025356 84 219 4.0 6.0 0.00 0.00 0.00 81
20260901024850 84 24 2.0 7.0 0.00 0.00 0.00 81
20260901024349 85 342 1.0 6.0 0.00 0.00 0.00 81
20260901023848 84 346 2.0 3.0 0.00 0.00 0.00 81
20260901023343 84 69 2.0 6.0 0.00 0.00 0.00 81
20260901022838 84 58 4.0 7.0 0.00 0.00 0.00 81
20260901022334 84 60 3.0 6.0 0.00 0.00 0.00 81
20260901021829 85 259 2.0 4.0 0.00 0.00 0.00 81
20260901021325 85 305 2.0 6.0 0.00 0.00 0.00 81
20260901020819 85 89 2.0 7.0 0.00 0.00 0.00 81
20260901020315 85 297 2.0 6.0 0.00 0.00 0.00 81
20260901015809 85 258 2.0 10.0 0.00 0.00 0.00 80
20260901015306 85 270 2.0 4.0 0.00 0.00 0.00 80
20260901014804 85 199 3.0 6.0 0.00 0.00 0.00 80
20260901014300 85 288 2.0 8.0 0.00 0.00 0.00 79
20260901013756 85 55 3.0 6.0 0.00 0.00 0.00 79
20260901013252 85 344 1.0 7.0 0.00 0.00 0.00 80
20260901012747 85 40 2.0 6.0 0.00 0.00 0.00 79
20260901012247 85 119 2.0 7.0 0.00 0.00 0.00 79
20260901011743 85 37 3.0 4.0 0.00 0.00 0.00 79
20260901011238 85 14 2.0 15.0 0.00 0.00 0.00 79
20260901010731 85 352 1.0 6.0 0.00 0.00 0.00 79
20260901010227 85 342 1.0 7.0 0.00 0.00 0.00 79
20260901005725 85 23 3.0 6.0 0.00 0.00 0.00 79
20260901005221 85 343 1.0 4.0 0.00 0.00 0.00 79
20260901004720 85 40 6.0 13.0 0.00 0.00 0.00 79
20260901004215 85 27 2.0 4.0 0.00 0.00 0.00 79
20260901003715 85 158 3.0 4.0 0.00 0.00 0.00 79
20260901003210 85 22 2.0 4.0 0.00 0.00 0.00 79
20260901002708 85 0 4.0 6.0 0.00 0.00 0.00 79
20260901002203 85 338 5.0 7.0 0.00 0.00 0.00 79
20260901001659 85 37 2.0 7.0 0.00 0.00 0.00 79
20260901001154 85 89 3.0 4.0 0.00 0.00 0.00 79
20260901000649 85 312 3.0 4.0 0.00 0.00 0.00 79
20260901000145 85 64 3.0 11.0 0.00 0.00 0.00 79
20260831235638 85 343 3.0 8.0 0.00 0.00 0.00 79
20260831235134 85 98 4.0 4.0 0.00 0.00 0.00 79
20260831234632 85 14 2.0 4.0 0.00 0.00 0.00 79
20260831234128 85 257 3.0 8.0 0.00 0.00 0.00 78
20260831233623 85 57 3.0 6.0 0.00 0.00 0.00 78
20260831233119 85 48 4.0 9.0 0.00 0.00 0.00 78
20260831232614 86 337 4.0 9.0 0.00 0.00 0.00 78
20260831232110 86 344 2.0 4.0 0.00 0.00 0.00 78
20260831231606 86 286 4.0 8.0 0.00 0.00 0.00 77
20260831231102 86 1 3.0 10.0 0.00 0.00 0.00 76
20260831230557 86 352 2.0 7.0 0.00 0.00 0.00 76
20260831230058 86 358 3.0 7.0 0.00 0.00 0.00 76
20260831225553 86 4 1.0 6.0 0.00 0.00 0.00 76
20260831225053 86 344 4.0 8.0 0.00 0.00 0.00 75
20260831224548 86 14 2.0 7.0 0.00 0.00 0.00 75
20260831224043 87 165 6.0 9.0 0.00 0.00 0.00 75
20260831223538 87 47 2.0 4.0 0.00 0.00 0.00 74
20260831223035 87 37 3.0 6.0 0.00 0.00 0.00 73
20260831222531 87 23 3.0 11.0 0.00 0.00 0.00 73
20260831222030 87 129 2.0 6.0 0.00 0.00 0.00 72
20260831221526 87 46 3.0 8.0 0.00 0.00 0.00 71
20260831221021 88 6 2.0 7.0 0.00 0.00 0.00 70
20260831220516 88 346 3.0 9.0 0.00 0.00 0.00 70
20260831220012 88 65 2.0 8.0 0.00 0.00 0.00 68
20260831215507 88 69 1.0 9.0 0.00 0.00 0.00 68
20260831215003 88 81 5.0 11.0 0.00 0.00 0.00 67
20260831214500 89 68 3.0 11.0 0.00 0.00 0.00 67
20260831213956 89 355 4.0 11.0 0.00 0.00 0.00 68
20260831213452 89 344 4.0 8.0 0.00 0.00 0.00 69
20260831212953 89 113 2.0 6.0 0.00 0.00 0.00 68
20260831212449 90 65 6.0 9.0 0.00 0.00 0.00 67
20260831211948 90 71 5.0 7.0 0.00 0.00 0.00 66
20260831211444 90 341 1.0 8.0 0.00 0.00 0.00 65
20260831210942 90 124 3.0 7.0 0.00 0.00 0.00 64
20260831210438 91 45 3.0 6.0 0.00 0.00 0.00 64
20260831205934 91 73 2.0 6.0 0.00 0.00 0.00 63
20260831205429 91 54 3.0 8.0 0.00 0.00 0.00 63
20260831204925 91 1 2.0 4.0 0.00 0.00 0.00 63
20260831204424 91 65 3.0 6.0 0.00 0.00 0.00 63
20260831203923 91 359 2.0 7.0 0.00 0.00 0.00 63
20260831203418 91 351 1.0 8.0 0.00 0.00 0.00 63
20260831202916 91 81 4.0 8.0 0.00 0.00 0.00 62
20260831202412 92 56 6.0 10.0 0.00 0.00 0.00 61
20260831201911 92 102 3.0 9.0 0.00 0.00 0.00 62
20260831201410 92 18 1.0 4.0 0.00 0.00 0.00 63
20260831200906 92 335 2.0 6.0 0.00 0.00 0.00 64
20260831200401 92 69 4.0 8.0 0.00 0.00 0.00 63
20260831195856 92 37 4.0 8.0 0.00 0.00 0.00 62
20260831195351 92 33 2.0 8.0 0.00 0.00 0.00 63
20260831194847 92 256 3.0 8.0 0.00 0.00 0.00 63
20260831194342 93 322 1.0 8.0 0.00 0.00 0.00 62
20260831193841 93 298 2.0 7.0 0.00 0.00 0.00 62
20260831193337 93 24 1.0 8.0 0.00 0.00 0.00 62
20260831192832 93 14 2.0 7.0 0.00 0.00 0.00 62
20260831192332 93 12 1.0 7.0 0.00 0.00 0.00 62
20260831191828 93 182 2.0 9.0 0.00 0.00 0.00 62
20260831191324 93 274 2.0 6.0 0.00 0.00 0.00 62
20260831190819 94 338 3.0 6.0 0.00 0.00 0.00 61
20260831190319 93 328 4.0 6.0 0.00 0.00 0.00 62
20260831185819 93 336 1.0 7.0 0.00 0.00 0.00 64
20260831185314 93 69 2.0 6.0 0.00 0.00 0.00 64
20260831184813 93 58 2.0 6.0 0.00 0.00 0.00 67
20260831184309 91 22 3.0 7.0 0.00 0.00 0.00 66
20260831183804 91 213 4.0 11.0 0.00 0.00 0.00 69
20260831183303 91 147 4.0 7.0 0.00 0.00 0.00 70
20260831182803 92 77 2.0 7.0 0.00 0.00 0.00 68
20260831182258 92 109 2.0 3.0 0.00 0.00 0.00 67
20260831181753 92 182 2.0 3.0 0.00 0.00 0.00 67
20260831181249 91 240 3.0 7.0 0.00 0.00 0.00 69
20260831180748 91 9 4.0 6.0 0.00 0.00 0.00 68
20260831180243 91 121 3.0 6.0 0.00 0.00 0.00 70
20260831175743 92 307 3.0 6.0 0.00 0.00 0.00 66
20260831175239 92 211 5.0 9.0 0.00 0.00 0.00 67
20260831174734 94 207 6.0 8.0 0.00 0.00 0.00 65
20260831174230 94 227 1.0 4.0 0.00 0.00 0.00 64
20260831173729 94 168 2.0 8.0 0.00 0.00 0.00 63
20260831173229 93 53 2.0 4.0 0.00 0.00 0.00 63
20260831172724 94 92 5.0 8.0 0.00 0.00 0.00 62
20260831172219 94 285 2.0 7.0 0.00 0.00 0.00 61
20260831171709 94 251 4.0 14.0 0.00 0.00 0.00 61
20260831171207 94 355 3.0 7.0 0.00 0.00 0.00 62
20260831170702 94 195 5.0 6.0 0.00 0.00 0.00 62
20260831170159 93 163 3.0 9.0 0.00 0.00 0.00 64
20260831165655 93 64 4.0 8.0 0.00 0.00 0.00 64
20260831165151 93 342 6.0 8.0 0.00 0.00 0.00 64
20260831164646 93 188 5.0 7.0 0.00 0.00 0.00 63
20260831164142 93 204 3.0 7.0 0.00 0.00 0.00 63
20260831163637 93 197 3.0 7.0 0.00 0.00 0.00 64
20260831163133 93 215 2.0 9.0 0.00 0.00 0.00 64
20260831162632 93 75 2.0 4.0 0.00 0.00 0.00 63
20260831162130 92 292 1.0 9.0 0.00 0.00 0.00 65
20260831161626 93 21 6.0 9.0 0.00 0.00 0.00 64
20260831161122 93 89 3.0 8.0 0.00 0.00 0.00 65
20260831160620 94 104 2.0 7.0 0.00 0.00 0.00 62
20260831160111 93 327 2.0 8.0 0.00 0.00 0.00 64
20260831155610 93 183 2.0 9.0 0.00 0.00 0.00 64
20260831155106 93 226 5.0 9.0 0.00 0.00 0.00 63
20260831154602 93 359 2.0 4.0 0.00 0.00 0.00 62
20260831154101 93 194 3.0 7.0 0.00 0.00 0.00 63
20260831153601 93 224 3.0 7.0 0.00 0.00 0.00 63
20260831153058 92 107 2.0 8.0 0.00 0.00 0.00 65
20260831152553 92 184 2.0 8.0 0.00 0.00 0.00 64
20260831152049 91 55 2.0 6.0 0.00 0.00 0.00 65
20260831151548 91 231 3.0 7.0 0.00 0.00 0.00 65
20260831151043 92 54 4.0 11.0 0.00 0.00 0.00 64
20260831150537 92 256 1.0 1.0 0.00 0.00 0.00 65
20260831150034 92 145 4.0 7.0 0.00 0.00 0.00 65
20260831145528 93 242 2.0 4.0 0.00 0.00 0.00 65
20260831145024 92 26 3.0 4.0 0.00 0.00 0.00 65
20260831144519 92 189 3.0 11.0 0.00 0.00 0.00 65
20260831144015 92 327 3.0 8.0 0.00 0.00 0.00 65
20260831143515 91 239 6.0 8.0 0.00 0.00 0.00 65
20260831143011 91 81 2.0 8.0 0.00 0.00 0.00 66
20260831142507 91 27 4.0 8.0 0.00 0.00 0.00 67
20260831142002 91 306 5.0 8.0 0.00 0.00 0.00 68
20260831141502 90 219 1.0 4.0 0.00 0.00 0.00 69
20260831140957 90 126 3.0 7.0 0.00 0.00 0.00 70
20260831140456 90 204 4.0 7.0 0.00 0.00 0.00 70
20260831135955 90 144 4.0 7.0 0.00 0.00 0.00 69
20260831135454 90 323 2.0 7.0 0.00 0.00 0.00 69
20260831134949 90 98 4.0 7.0 0.00 0.00 0.00 67
20260831134446 90 106 3.0 8.0 0.00 0.00 0.00 68
20260831133945 91 129 4.0 6.0 0.00 0.00 0.00 66
20260831133440 91 134 4.0 8.0 0.00 0.00 0.00 67
20260831132935 91 203 2.0 6.0 0.00 0.00 0.00 68
20260831132431 90 319 2.0 8.0 0.00 0.00 0.00 68
20260831131930 90 346 2.0 6.0 0.00 0.00 0.00 69
20260831131425 89 219 4.0 6.0 0.00 0.00 0.00 69
20260831130921 89 225 2.0 3.0 0.00 0.00 0.00 71
20260831130416 89 263 3.0 6.0 0.00 0.00 0.00 71
20260831125915 89 36 2.0 8.0 0.00 0.00 0.00 71
20260831125410 87 12 3.0 6.0 0.00 0.00 0.00 73
20260831124906 87 2 3.0 10.0 0.00 0.00 0.00 74
20260831124402 87 287 2.0 4.0 0.00 0.00 0.00 75
20260831123857 88 201 4.0 8.0 0.00 0.00 0.00 73
20260831123356 89 102 2.0 8.0 0.00 0.00 0.00 73
20260831122855 88 321 2.0 8.0 0.00 0.00 0.00 74
20260831122351 88 100 2.0 9.0 0.00 0.00 0.00 74
20260831121846 87 217 3.0 7.0 0.00 0.00 0.00 74
20260831121337 87 111 4.0 7.0 0.00 0.00 0.00 76
20260831120832 86 61 4.0 7.0 0.00 0.00 0.00 77
20260831120331 86 19 2.0 8.0 0.00 0.00 0.00 78
20260831115827 85 353 1.0 4.0 0.00 0.00 0.00 80
20260831115323 85 143 2.0 4.0 0.00 0.00 0.00 80
20260831114822 85 233 3.0 7.0 0.00 0.00 0.00 79
20260831114321 86 97 4.0 6.0 0.00 0.00 0.00 79
20260831113818 86 338 1.0 6.0 0.00 0.00 0.00 80
20260831113317 85 270 1.0 8.0 0.00 0.00 0.00 80
20260831112812 85 352 1.0 4.0 0.00 0.00 0.00 81
20260831112307 84 349 1.0 7.0 0.00 0.00 0.00 82
20260831111802 84 73 1.0 4.0 0.00 0.00 0.00 82
20260831111258 84 354 1.0 3.0 0.00 0.00 0.00 83
20260831110754 84 89 1.0 3.0 0.00 0.00 0.00 83
20260831110249 83 20 3.0 7.0 0.00 0.00 0.00 84
20260831105747 83 82 2.0 6.0 0.00 0.00 0.00 84
20260831105243 83 36 3.0 6.0 0.00 0.00 0.00 84
20260831104738 83 12 2.0 6.0 0.00 0.00 0.00 85
20260831104235 83 26 1.0 3.0 0.00 0.00 0.00 85
20260831103734 83 342 0.0 8.0 0.00 0.00 0.00 85
20260831103230 83 327 2.0 2.0 0.00 0.00 0.00 85
20260831102729 83 18 2.0 4.0 0.00 0.00 0.00 85
20260831102224 83 280 3.0 8.0 0.00 0.00 0.00 85
20260831101720 83 244 2.0 3.0 0.00 0.00 0.00 85
20260831101215 83 3 2.0 6.0 0.00 0.00 0.00 85
20260831100711 83 339 1.0 2.0 0.00 0.00 0.00 85